Regional Weather Roundup
Issued by NWS

Home | Current Version | Previous Version | Graphics & Text | Print | Product List | Glossary On
Versions: 1 2 3 4 5 6 7 8 9 10 11 12 13 14 15 16 17 18 19 20 21 22 23 24 25 26 27 28 29 30 31 32 33 34 35 36 37 38 39 40 41 42 43 44 45 46 47 48 49 50
000
ASUS43 KLOT 081108
RWRIL

ILLINOIS REGIONAL WEATHER ROUNDUP
NATIONAL WEATHER SERVICE CHICAGO/ROMEOVILLE IL
500 AM CST THU DEC 08 2016

NOTE: "FAIR" INDICATES FEW OR NO CLOUDS BELOW 12,000 FEET WITH NO
SIGNIFICANT WEATHER AND/OR OBSTRUCTIONS TO VISIBILITY.

* THESE STATIONS ARE NOT UNDER NWS QUALITY CONTROL. THEY ALSO MAY NOT
  REPORT WEATHER SUCH AS PRECIPITATION OR FOG.

ILZ001-002-007-009-015-016-024-081200-
NORTHWEST ILLINOIS

CITY           SKY/WX    TMP DP  RH WIND       PRES   REMARKS
MOLINE         PTCLDY    18   8  65 NW21G28   30.30R WCI   1
STERLING*      PTCLDY    16  10  77 W20G29    30.25R WCI  -1
SAVANNA*       CLOUDY    16   8  70 W21G28    30.26R WCI  -1
$$

ILZ003-004-008-010-011-017-018-081200-
NORTH CENTRAL ILLINOIS

CITY           SKY/WX    TMP DP  RH WIND       PRES   REMARKS
ROCKFORD       FLURRIES  18   9  68 W20G28    30.20R WCI   2
FREEPORT*      PTCLDY    14   7  73 W18G28    30.21S WCI  -3
ROCHELLE*      CLOUDY    18  12  76 W23       30.21S WCI   1
DE KALB*       CLOUDY    19  12  75 W24G33    30.17S WCI   1
$$

ILZ005-006-012>014-019>023-081200-
NORTHEAST ILLINOIS

CITY           SKY/WX    TMP DP  RH WIND       PRES   REMARKS
CHICAGO-OHARE  FLURRIES  21  12  68 W20G28    30.16R WCI   6
CHICAGO-MIDWAY FLURRIES  22  11  62 W17       30.18R WCI   8
AURORA         FLURRIES  21  13  71 W22G32    30.20R WCI   5
LANSING*       CLOUDY    22  15  76 W18G25    30.19S WCI   7
JOLIET*        FLURRIES  23  16  74 W10G23    30.22R WCI  12
WAUKEGAN       CLOUDY    20  10  65 W12G25    30.13R WCI   8
DUPAGE AIRPORT FLURRIES  20  11  68 W22       30.17R WCI   3
KANKAKEE*      CLOUDY    21  13  72 W22       30.23R WCI   5
WHEELING       CLOUDY    22  12  65 W13       30.16S WCI  10
MORRIS*        FLURRIES  21  15  76 W17       30.22R WCI   7
ROMEOVILLE*    FLURRIES  21  17  86 W18G28    30.20R WCI   6
NORTHERLY ISL    N/A     22  12  65 W17         N/A  WCI   8
$$

LMZ740>746-081200-
SOUTHERN LAKE MICHIGAN

STATION/POSITION SKY/WX   TEMP    WIND        PRES    VSBY  WAVE
                          AIR SEA DIR/SP/G                  HT/PER
                          (F)     (DEG/KT/KT) (MB)    (MI)  (FT/S)
HARRISON CRIB              23     270/ 22/ 24   N/A
BURNHAM HARBOR             22     270/ 12/ 22   N/A
CALUMET HARBOR             22     250/  9/ 14 1021.2R
BURNS HARBOR               25     270/ 22/ 26 1021.7S
MICHIGAN CITY              25     230/ 28/ 34   N/A
$$

ILZ025>027-034>036-040-047-049-050-058-095>099-081200-
WEST-CENTRAL ILLINOIS

CITY           SKY/WX    TMP DP  RH WIND       PRES   REMARKS
QUINCY         CLEAR     18   9  68 W21G26    30.38R WCI   1
GALESBURG*     CLOUDY    18  12  78 W15G22    30.31R WCI   4
MACOMB*        CLOUDY    18  12  79 W22       30.36R WCI   0
JACKSONVILLE*  PTCLDY    19  11  73 W10       30.37R WCI   7
PITTSFIELD*    PTCLDY    19  11  70 W13       30.39R WCI   7
$$

ILZ028>032-037-038-041>044-048-051>054-059>061-081200-
CENTRAL ILLINOIS

CITY           SKY/WX    TMP DP  RH WIND       PRES   REMARKS
PONTIAC        MIX PCPN  22  16  79 W21G29    30.26R WCI   6
BLOOMINGTON    MOCLDY    18  12  77 W20G26    30.27R WCI   2
DECATUR        CLEAR     20  11  68 W15       30.32R WCI   6
PEORIA         FLURRIES  19  11  70 W14G22    30.31R WCI   6
LACON*         FLURRIES  20  12  72 W13G21    30.28R WCI   7
LINCOLN*       PTCLDY    20  14  75 W7        30.32R WCI  11
SPRINGFIELD    CLEAR     21  12  68 W13       30.35R WCI   9
TAYLORVILLE    CLEAR     20  13  73 W14       30.35R WCI   7
$$

ILZ033-039-045-046-055>057-062-063-081200-
EAST-CENTRAL ILLINOIS

CITY           SKY/WX    TMP DP  RH WIND       PRES   REMARKS
CHAMPAIGN      CLEAR     20  12  71 W16       30.28R WCI   6
RANTOUL*       PTCLDY    22  16  78 W13       30.26R WCI   9
MATTOON        CLEAR     20  12  71 W13       30.31R WCI   7
PARIS*         PTCLDY    21  15  79 W14G21    30.31R WCI   8
$$

ILZ079-100>102-081200-
SOUTHWEST ILLINOIS

CITY           SKY/WX    TMP DP  RH WIND       PRES   REMARKS
ALTON          PTCLDY    21  12  68 W9        30.40R WCI  11
BELLEVILLE     CLEAR     23  11  60 NW14      30.40R WCI  10
CAHOKIA*       PTCLDY    24  10  55 W12G21    30.42R WCI  13
SPARTA*        CLEAR     24  12  62 W8        30.42R WCI  14
$$

ILZ064>066-069>071-074>076-080>082-084>086-088>090-092>094-081200-
SOUTH-CENTRAL ILLINOIS

CITY           SKY/WX    TMP DP  RH WIND       PRES   REMARKS
CARBONDALE     CLEAR     25  16  68 NW9       30.41R WCI  15
CAIRO*         MOCLDY    29  20  70 NW10      30.40R WCI  19
EFFINGHAM*     CLEAR     23  16  73 W10G18    30.36R WCI  12
MARION           N/A     27  14  59 NW8       30.41R WCI  18
CENTRALIA*     CLEAR     25  15  67 W13       30.38R WCI  13
SALEM*         PTCLDY    25  13  62 W15       30.37R WCI  12
METROPOLIS*    PTCLDY    29  21  72 CALM      30.39R
$$

ILZ067-068-072-073-078-083-087-091-081200-
SOUTHEAST ILLINOIS

CITY           SKY/WX    TMP DP  RH WIND       PRES   REMARKS
LAWRENCEVILLE  PTCLDY    25  16  68 W16G22    30.34R WCI  12
FLORA*         PTCLDY    25  15  67 W9        30.37R WCI  15
FAIRFIELD*     PTCLDY    25  14  63 W7        30.37R WCI  17
HARRISBURG*    PTCLDY    28  19  70 NW16G24   30.39R WCI  15
ROBINSON*      MOCLDY    25  18  74 W14       30.34R WCI  13
CARMI*         CLOUDY    28  20  73 NW14      30.37R WCI  17
$$

ABBREVIATIONS USED IN REMARKS
   TC - TEMPERATURE IN CELSIUS
  WCI - WIND CHILL INDEX
   HX - HEAT INDEX
  VSB - VISIBILITY
$$





USA.gov is the U.S. government's official web portal to all federal, state and local government web resources and services.